Location: Santa Mar�a de la Alameda
(40.5965°N, 4.2585°W)
Time: 22:02:01
(UTC+00:00)

Daily predictions for brighter satellites

Satellite Brightness Start Highest point End
(mag) Time Altitude Azimuth Time Altitude Azimuth Time Altitude Azimuth
H-2A R/B 3.0 17:14:21 10° ESE 17:18:32 25° ENE 17:22:40 10° NNE
Cosmos 1862 3.3 17:15:03 10° N 17:19:03 87° E 17:23:02 10° S
Cosmos 1766 Rocket 3.6 17:15:31 10° N 17:19:53 88° WSW 17:24:14 10° S
ATLAS CENTAUR R/B 3.2 17:19:42 10° WSW 17:23:10 26° NW 17:26:53 10° N
Cosmos 2221 2.5 17:20:23 10° S 17:24:34 63° E 17:28:50 10° NNE
FengYun 1-2 T 4.3 17:19:10 10° SSE 17:24:43 68° ENE 17:30:16 10° N
Cosmos 44 4.0 17:24:23 10° NNW 17:28:38 30° NE 17:32:38 10° ESE
COSMO-SKYMED 1 3.8 17:30:49 10° NE 17:34:11 22° E 17:37:31 10° SE
NOAA 12 4.3 17:30:41 10° S 17:36:00 79° WSW 17:41:22 10° NNW
Okean O Rocket 2.9 17:36:21 10° ESE 17:39:35 20° ENE 17:42:48 10° NNE
Meteor 2-19 Rocket 4.4 17:34:11 10° N 17:40:15 72° E 17:46:20 10° SSE
CZ-2C R/B 3.4 17:36:02 10° NE 17:40:32 29° E 17:44:58 10° SSE
ISS -1.4 17:41:17 10° NNW 17:42:57 13° N 17:44:37 10° NNE
CZ-4C R/B 4.2 17:41:29 10° N 17:46:05 18° NNE 17:49:48 13° ENE
MOS 1-B 4.4 17:45:43 10° SE 17:51:18 53° ENE 17:56:54 10° N
NOAA 6 4.1 17:46:44 10° SSE 17:51:54 85° WSW 17:57:04 10° NNW
Cosmos 1408 Rocket 3.8 17:54:21 10° NNW 17:58:40 72° W 18:03:01 10° S
Cosmos 1782 3.6 17:56:36 10° SSE 18:00:08 30° E 18:02:35 16° NE
GEOS 3 Rocket 4.4 17:56:54 12° ESE 18:01:05 32° NE 18:05:40 10° NNW
Cosmos 1743 Rocket 3.4 17:58:51 10° N 18:03:09 65° E 18:07:25 10° SSE
Cosmos 1763 Rocket 3.3 18:00:50 10° S 18:05:51 74° ESE 18:10:56 10° NNE
Cosmos 841 Rocket 4.2 18:03:04 10° SSE 18:07:37 32° E 18:10:09 21° NE
Cosmos 1697 Rocket 3.1 18:03:03 10° N 18:08:16 38° ENE 18:13:27 10° SE
Cosmos 1937 Rocket 4.2 18:03:58 10° N 18:08:44 33° ENE 18:13:29 10° SE
Lacrosse 5 3.6 18:04:38 10° WNW 18:09:16 35° SW 18:13:52 10° S
Cosmos 1980 Rocket 3.3 18:05:41 10° N 18:10:00 22° NE 18:10:40 21° ENE
Cosmos 1812 4.1 18:08:49 10° SE 18:10:59 21° ESE 18:10:59 21° ESE
CZ-4B DEB 4.4 18:07:08 10° S 18:12:39 75° WSW 18:18:11 10° NNW
Nadezhda 4 Rocket 4.3 18:07:50 10° NNW 18:14:06 71° W 18:20:23 10° S
Cosmos 1340 Rocket 3.0 18:10:06 10° NNW 18:14:10 78° W 18:18:14 10° S
Cosmos 1656 3.6 18:08:42 10° NNW 18:14:16 84° ENE 18:19:52 10° SSE
Cosmos 2082 Rocket 2.9 18:11:31 10° SSE 18:16:30 32° ESE 18:18:33 25° ENE
USA 276 3.5 18:17:36 10° NW 18:19:58 24° N 18:19:58 24° N
Cosmos 1151 Rocket 3.8 18:17:29 10° SSE 18:20:53 29° E 18:20:53 29° E
COSMOS 2406 3.2 18:16:12 10° S 18:21:52 62° ESE 18:26:02 19° NNE
SKYMED 2 3.4 18:18:04 10° NNE 18:22:26 74° ESE 18:26:45 10° S
Cosmos 1933 3.3 18:18:33 10° S 18:22:36 86° W 18:26:41 10° N
Cosmos 1602 3.6 18:20:15 10° N 18:24:05 67° E 18:27:54 10° SSE
Cosmos 990 Rocket 3.9 18:18:58 10° NNW 18:24:12 83° ENE 18:29:21 10° SSE
Cosmos 1092 Rocket 4.0 18:18:10 10° N 18:24:33 82° E 18:30:53 10° S
Cosmos 1809 Rocket 4.3 18:19:05 10° N 18:25:12 74° E 18:31:16 10° SSE
USA 229 DEB 3.9 18:22:02 10° NNW 18:29:21 61° NE 18:37:05 10° SE
SJ 16-02 4.0 18:26:04 10° NW 18:29:25 22° W 18:32:45 10° SSW
USA 229 3.9 18:22:08 10° NNW 18:29:26 60° NE 18:37:10 10° SE
Cosmos 1500 Rocket 4.4 18:29:11 10° NNW 18:33:31 52° W 18:37:46 10° S
CZ-2D R/B 4.4 18:30:36 10° S 18:34:18 46° W 18:38:01 10° NNW
Cosmos 2142 Rocket 4.5 18:29:30 10° S 18:35:27 57° E 18:41:30 10° NNE
Cosmos 1428 Rocket 4.4 18:30:50 10° N 18:36:59 89° E 18:43:08 10° S
Meteor 1-26 Rocket 4.3 18:31:15 10° S 18:37:07 83° E 18:43:10 10° N
Cosmos 1627 Rocket 4.4 18:36:04 10° N 18:42:17 85° W 18:48:24 10° S
Cosmos 1805 Rocket 3.8 18:40:06 10° NNW 18:44:26 70° W 18:48:42 10° S
Cosmos 1833 Rocket 3.1 18:43:49 10° SW 18:49:22 61° WNW 18:53:35 18° NNE
NOSS 3-1 (A) 4.1 18:45:08 10° NW 18:52:54 87° NE 19:01:51 10° SSE
CZ-4B R/B 3.6 18:47:28 10° S 18:52:54 62° WSW 18:58:15 10° NNW
Cosmos 2279 Rocket 3.8 18:47:21 10° S 18:53:33 76° E 18:59:46 10° N
Cosmos 1814 Rocket 4.1 18:49:41 10° S 18:54:34 52° ESE 18:54:34 52° ESE
GPS 2-04 Rocket1 3.7 18:51:04 10° WSW 18:54:44 36° S 18:54:44 36° S
Cosmos 2360 4.1 18:49:23 10° NNW 18:55:09 82° ENE 19:00:33 12° SSE
Sich 1 3.3 18:51:11 10° NNW 18:55:27 67° W 18:59:42 10° S
ARGOS 3.3 18:51:24 10° S 18:56:48 72° WSW 19:02:14 10° NNW
H-2A R/B 3.4 18:52:47 10° SSW 18:57:43 40° W 19:02:34 10° NNW
Meteor 1-14 Rocket 4.2 18:53:27 10° N 18:59:14 70° E 19:05:07 10° SSE
Cosmos 1898 Rocket 4.0 18:57:53 10° NNW 19:03:04 60° WSW 19:08:10 10° S
Landsat 5 4.3 19:03:51 26° NNW 19:05:52 47° WNW 19:09:46 10° SW
COSMOS 2455 2.8 19:01:15 10° SSW 19:07:16 88° WNW 19:09:04 48° NNE
COSMO-SKYMED 1 4.2 19:06:30 10° N 19:10:22 32° WNW 19:14:13 10° SW
SL-08 RB Rocket 4.0 19:06:53 10° S 19:11:31 68° WSW 19:16:09 10° NNW
Cosmos 540 Rocket 4.4 19:09:31 10° SW 19:14:25 46° WNW 19:16:54 26° N
ATLAS CENTAUR R/B 3.7 19:07:04 10° WSW 19:15:18 37° NW 19:16:50 30° N
Okean O Rocket 3.0 19:11:30 10° SSW 19:15:38 38° W 19:19:49 10° NNW
Meteor 2-16 Rocket 4.4 19:12:31 10° N 19:18:38 81° W 19:24:44 10° S
CZ-2C R/B 4.1 19:16:11 10° N 19:20:49 33° WNW 19:25:23 10° SW
BREEZE-M DEB (TANK) 4.4 19:02:59 10° SW 19:35:18 78° SE 19:37:06 61° ENE
CZ-4C R/B 3.2 19:28:56 10° NNW 19:35:02 52° NNE 19:35:02 52° NNE
GEOS 3 Rocket 4.4 19:38:03 44° SSW 19:38:56 48° WSW 19:43:59 10° NW
Cosmos 2369 4.2 19:38:43 10° NNW 19:44:19 56° WSW 19:44:28 55° WSW
Cosmos 1697 Rocket 4.4 19:47:15 10° NW 19:52:04 30° WSW 19:56:52 10° SSW
Cosmos 1980 Rocket 3.3 19:48:51 10° NNW 19:52:30 39° NW 19:52:30 39° NW
Cosmos 2082 Rocket 3.5 19:55:16 10° SW 20:00:28 36° WNW 20:00:28 36° WNW
